www.pogodaiklimat.ru

Погода и климат >> Архив погоды >> Япония >> Отару


ПОГОДА в Отару

  • Прогноз погоды в Отару
  • Монитор погоды в Отару

АРХИВ ПОГОДЫ в Отару

Время (UTC), дата Ветер
(напр.,м/с)
 
Видим.   Явления Облачность Т
(С)
Тd
(С)
f
(%)
Тe
(С)
Тes
(С)
Комфортность P
(гПа)
Po
(гПа)
Тmin
(С)
Tmax
(С)
R
(мм)
R24
(мм)
S
(см)
10 14.08 В 1 20 км н/о +23.1 +17.6 71 +28 +28 душно 1008.4 1005.4
11 14.08 ЮЗ 2 20 км н/о +21.6 +17.6 78 +26 +26 душно 1008.7 1005.7
12 14.08 ЮЗ 2 20 км н/о +20.7 +17.3 81 +25 +25 комфорт 1008.9 1005.8 +26.9
13 14.08 ЮЗ 2 20 км н/о +19.7 +17.5 87 +23 +23 комфорт 1008.9 1005.8
14 14.08 ЮЗ 2 20 км н/о +19.2 +17.2 88 +22 +22 комфорт 1008.7 1005.6
15 14.08 ЮЗ 2 20 км н/о +18.6 +17.3 92 +20 +20 1008.2 1005.1
16 14.08 ЮЗ 2 20 км н/о +18.9 +17.2 90 +21 +21 комфорт 1007.7 1004.6
17 14.08 ЮЗ 2 20 км н/о +18.0 +17.0 94 +19 +19 1007.7 1004.6
18 14.08 ЮЗ 2 20 км н/о +18.3 +17.2 93 +20 +20 1007.7 1004.6
20 14.08 З 1 20 км н/о +17.9 +17.1 95 +19 +19 1007.3 1004.2
21 14.08 З 2 20 км н/о +19.5 +17.6 89 +23 +23 комфорт 1007.3 1004.2
22 14.08 ЮЗ 1 20 км н/о +22.0 +17.8 77 +27 +27 душно 1007.0 1004.0
23 14.08 В 2 20 км н/о +22.3 +18.1 77 +27 +27 душно 1007.1 1004.1
00 15.08 В 2 20 км н/о +23.6 +17.4 68 +27 +27 жарко 1006.7 1003.7 +17.8
01 15.08 С 2 20 км н/о +25.3 +18.5 66 +30 +30 душно 1006.2 1003.2
03 15.08 СВ 2 20 км н/о +27.5 +20.1 64 +34 +34 очень
душно
1004.6 1001.6
04 15.08 СВ 2 20 км н/о +29.0 +21.2 63 +37 +37 очень
душно
1003.6 1000.7
06 15.08 СВ 2 20 км н/о +29.0 +21.0 62 +36 +36 очень
душно
1002.5 999.6
08 15.08 В 3 20 км н/о +29.0 +21.8 65 +37 +37 очень
душно
1001.9 999.0
09 15.08 ЮВ 2 20 км н/о +27.8 +21.6 69 +36 +36 очень
душно
1002.1 999.1
10 15.08 ЮВ 2 20 км н/о +26.8 +21.3 72 +34 +34 очень
душно
1002.1 999.1
11 15.08 ЮЗ 3 20 км н/о +25.5 +21.8 80 +33 +33 очень
душно
1002.1 999.1
12 15.08 ЮЗ 2 20 км н/о +24.8 +21.5 82 +32 +32 очень
душно
1002.0 999.0 +30.2
13 15.08 В 4 20 км н/о +26.2 +22.1 78 +34 +34 очень
душно
1000.8 997.8
14 15.08 В 3 20 км н/о +27.0 +22.6 77 +36 +36 очень
душно
1000.3 997.3
15 15.08 В 4 20 км н/о +26.8 +22.6 78 +35 +35 очень
душно
999.5 996.5
16 15.08 ЮВ 4 20 км н/о +26.9 +22.5 77 +35 +35 очень
душно
999.1 996.1
17 15.08 В 4 20 км слаб. дождь н/о +26.3 +22.6 80 +35 +35 очень
душно
999.0 996.0
18 15.08 В 5 20 км слаб. дождь н/о +25.6 +22.7 84 +34 +34 очень
душно
998.7 995.7 0.0
19 15.08 В 5 20 км слаб. дождь н/о +25.7 +23.0 85 +34 +34 очень
душно
998.4 995.4
20 15.08 В 5 20 км слаб. дождь н/о +25.6 +23.1 86 +34 +34 очень
душно
998.1 995.1
21 15.08 В 4 20 км слаб. дождь н/о +25.8 +23.3 86 +35 +35 очень
душно
997.4 994.4
22 15.08 В 7 20 км слаб. дождь н/о +26.2 +23.3 84 +35 +35 очень
душно
996.6 993.6
23 15.08 В 7 20 км в посл. час дождь н/о +26.9 +23.2 80 +36 +36 очень
душно
995.7 992.8
00 16.08 В 4 20 км слаб. дождь н/о +29.7 +22.9 67 +40 +40 очень
душно
995.6 992.7 +24.5 0.0
01 16.08 В 4 20 км слаб. дождь н/о +28.6 +23.5 74 +39 +39 очень
душно
995.2 992.3
02 16.08 В 5 20 км слаб. дождь н/о +28.0 +23.4 76 +38 +38 очень
душно
994.6 991.7
03 16.08 В 4 20 км слаб. дождь н/о +27.5 +23.7 80 +38 +38 очень
душно
994.3 991.4
04 16.08 В 4 20 км слаб. дождь н/о +27.9 +23.9 79 +39 +39 очень
душно
993.3 990.4
05 16.08 ЮВ 3 20 км слаб. дождь н/о +28.4 +23.5 75 +39 +39 очень
душно
992.7 989.8
06 16.08 В 2 20 км слаб. дождь н/о +27.9 +23.1 75 +37 +37 очень
душно
991.9 989.0 0.0
07 16.08 ЮВ 4 20 км слаб. дождь н/о +28.5 +23.0 72 +38 +38 очень
душно
991.4 988.5
08 16.08 В 4 20 км в посл. час дождь н/о +25.9 +23.2 85 +35 +35 очень
душно
990.7 987.8
09 16.08 В 6 20 км слаб. дождь н/о +26.4 +22.7 80 +35 +35 очень
душно
990.1 987.2
11 16.08 В 3 20 км слаб. дождь н/о +24.6 +22.9 90 +33 +33 очень
душно
990.0 987.0
12 16.08 В 4 20 км слаб. дождь н/о +23.8 +22.4 92 +31 +31 очень
душно
989.5 986.5 +30.8 2
13 16.08 В 5 15 км слаб. дождь н/о +23.5 +22.3 93 +31 +31 очень
душно
988.6 985.6
15 16.08 ЮЗ 2 20 км слаб. дождь н/о +23.4 +23.1 98 +33 +33 очень
душно
987.5 984.5
16 16.08 ЮЗ 2 20 км слаб. дождь н/о +23.1 +22.8 98 +32 +32 очень
душно
987.1 984.1
17 16.08 З 2 20 км в посл. час дождь н/о +22.9 +22.6 98 +31 +31 очень
душно
987.5 984.5
18 16.08 В 1 20 км {дождь} н/о +23.9 +23.1 95 +32 +32 очень
душно
987.7 984.7 5
19 16.08 С 2 20 км в посл. час дождь н/о +25.0 +21.9 83 +32 +32 очень
душно
987.9 985.0
20 16.08 В 2 20 км н/о +23.4 +22.2 93 +32 +32 очень
душно
989.0 986.0
21 16.08 ЮВ 2 20 км в посл. час дождь н/о +23.4 +22.4 94 +32 +32 очень
душно
990.0 987.0
22 16.08 В 2 20 км слаб. дождь н/о +24.2 +22.6 91 +32 +32 очень
душно
990.4 987.4
23 16.08 СЗ 1 18 км слаб. дождь н/о +24.9 +22.8 88 +33 +33 очень
душно
991.2 988.2
00 17.08 С 2 20 км слаб. дождь н/о +26.1 +22.0 78 +34 +34 очень
душно
991.5 988.6 +22.8 5
01 17.08 ЮЗ 5 20 км слаб. дождь н/о +25.2 +21.9 82 +32 +32 очень
душно
992.7 989.7
02 17.08 ЮЗ 8 20 км слаб. дождь н/о +25.5 +21.0 76 +32 +32 очень
душно
993.0 990.0
03 17.08 З 7 20 км в посл. час дождь н/о +27.1 +20.5 67 +34 +34 очень
душно
993.5 990.6
04 17.08 ЮЗ 8 20 км н/о +26.4 +19.8 67 +32 +32 очень
душно
993.9 991.0
05 17.08 ЮЗ 10 20 км н/о +25.4 +19.1 68 +30 +30 душно 994.6 991.6
06 17.08 ЮЗ 8 20 км {дождь} н/о +25.6 +19.3 68 +31 +31 очень
душно
995.4 992.4 0.0
07 17.08 ЮЗ 8 20 км н/о +24.6 +19.2 72 +30 +30 очень
душно
996.3 993.3
08 17.08 ЮЗ 11 20 км н/о +23.1 +18.4 75 +29 +29 очень
душно
996.8 993.8
09 17.08 ЮЗ 5 20 км н/о +22.6 +18.2 76 +28 +28 душно 998.4 995.4
10 17.08 ЮЗ 5 20 км н/о +22.2 +18.0 77 +27 +27 душно 999.4 996.4
13 17.08 ЮЗ 3 20 км н/о +22.5 +17.4 73 +27 +27 душно 1001.9 998.9
14 17.08 ЮЗ 5 20 км н/о +22.4 +17.3 73 +27 +27 душно 1002.7 999.7
15 17.08 З 2 20 км н/о +22.6 +17.3 72 +27 +27 душно 1003.1 1000.1
16 17.08 СЗ 1 20 км н/о +21.5 +18.9 85 +26 +26 душно 1003.7 1000.7
06 19.08 В 3 20 км н/о +26.5 +21.0 72 +33 +33 очень
душно
1012.0 1009.0
09 19.08 З 2 20 км н/о +25.3 +20.3 74 +31 +31 очень
душно
1012.4 1009.4
10 19.08 З 1 20 км н/о +24.2 +20.1 78 +30 +30 очень
душно
1012.7 1009.7
11 19.08 СЗ 1 20 км н/о +23.5 +19.9 80 +29 +29 душно 1013.2 1010.2
12 19.08 ЮЗ 2 20 км н/о +22.6 +20.3 87 +29 +29 очень
душно
1013.0 1010.0 +27.5
13 19.08 ЮЗ 2 20 км н/о +21.9 +20.0 89 +28 +28 душно 1013.0 1009.9
14 19.08 ЮЗ 2 20 км н/о +21.6 +19.7 89 +27 +27 душно 1013.2 1010.1
15 19.08 ЮЗ 2 18 км н/о +21.2 +19.9 92 +26 +26 душно 1013.3 1010.2
16 19.08 ЮЗ 2 19 км н/о +20.9 +19.6 92 +26 +26 душно 1013.3 1010.2
17 19.08 ЮЗ 2 20 км н/о +20.7 +19.2 91 +26 +26 душно 1013.3 1010.2
18 19.08 Ю 1 20 км н/о +20.9 +19.0 89 +26 +26 душно 1012.6 1009.5
19 19.08 ЮЗ 2 20 км н/о +20.6 +18.7 89 +25 +25 комфорт 1012.7 1009.6
20 19.08 ЮЗ 2 20 км н/о +20.3 +18.6 90 +25 +25 комфорт 1013.2 1010.1
21 19.08 ЮВ 1 20 км н/о +20.6 +18.7 89 +26 +26 душно 1012.8 1009.7
22 19.08 ЮЗ 2 20 км н/о +20.8 +18.7 88 +26 +26 душно 1012.4 1009.3
23 19.08 СВ 2 20 км н/о +22.0 +18.8 82 +27 +27 душно 1011.7 1008.7
00 20.08 С 1 20 км н/о +23.1 +18.6 76 +29 +29 очень
душно
1011.6 1008.6 +20.2
01 20.08 В 2 20 км н/о +22.8 +18.4 76 +28 +28 душно 1011.5 1008.5
02 20.08 В 2 20 км н/о +22.6 +17.7 74 +28 +28 душно 1011.3 1008.3
03 20.08 ЮВ 1 3700 м дождь н/о +20.8 +19.3 91 +26 +26 душно 1011.7 1008.6
04 20.08 В 2 7000 м слаб. дождь н/о +20.1 +19.8 98 +25 +25 комфорт 1011.6 1008.5
05 20.08 СЗ 2 13 км дождь н/о +20.0 +19.2 95 +24 +24 комфорт 1011.6 1008.5
06 20.08 В 3 2300 м дождь н/о +19.2 +18.9 98 +22 +22 комфорт 1012.4 1009.3 22
07 20.08 ЮВ 4 4500 м дождь н/о +19.0 +18.4 96 +21 +21 комфорт 1009.7 1006.6
08 20.08 З 3 20 км в посл. час дождь н/о +19.8 +18.8 94 +23 +23 комфорт 1011.2 1008.1
09 20.08 З 1 20 км {дождь} н/о +20.1 +18.9 93 +25 +25 комфорт 1010.9 1007.8
10 20.08 ЮЗ 2 20 км н/о +19.8 +19.0 95 +23 +23 комфорт 1011.4 1008.3
11 20.08 В 2 20 км н/о +19.7 +18.9 95 +23 +23 комфорт 1011.3 1008.2
12 20.08 ЮЗ 2 20 км {дождь} н/о +18.4 +18.2 99 +20 +20 1011.6 1008.5 +23.4 36
13 20.08 ЮЗ 3 20 км н/о +18.1 +17.3 95 +19 +19 1011.4 1008.3
14 20.08 ЮЗ 1 20 км н/о +17.6 +17.3 98 +19 +19 1011.6 1008.5
15 20.08 ЮЗ 2 20 км н/о +18.1 +18.1 100 +19 +19 1011.4 1008.3
16 20.08 С 1 20 км н/о +18.2 +18.0 99 +20 +20 1011.3 1008.2
17 20.08 ЮЗ 1 20 км н/о +17.5 +17.5 100 +19 +19 1011.4 1008.3
18 20.08 З 1 20 км н/о +17.5 +17.5 100 +19 +19 1011.6 1008.5
20 20.08 Ю 1 20 км н/о +17.2 +17.1 99 +19 +19 1011.8 1008.7
22 20.08 СЗ 1 20 км н/о +19.6 +17.6 88 +24 +24 комфорт 1012.6 1009.5
23 20.08 СВ 2 20 км н/о +20.1 +17.9 87 +24 +24 комфорт 1012.5 1009.4
00 21.08 В 2 20 км н/о +20.8 +18.0 84 +25 +25 комфорт 1012.8 1009.7 +17.1
01 21.08 СВ 2 20 км н/о +22.3 +19.1 82 +28 +28 душно 1012.7 1009.7
02 21.08 СВ 3 20 км н/о +23.1 +19.1 78 +29 +29 очень
душно
1012.1 1009.1
03 21.08 В 4 20 км н/о +24.5 +19.1 72 +29 +29 душно 1011.6 1008.6
05 21.08 В 3 11 км слаб. дождь н/о +23.1 +19.3 79 +29 +29 очень
душно
1011.0 1008.0
06 21.08 В 2 20 км в посл. час дождь н/о +23.3 +20.5 84 +31 +31 очень
душно
1011.0 1008.0 0.0
07 21.08 В 3 20 км в посл. час дождь н/о +22.8 +19.0 79 +29 +29 очень
душно
1010.7 1007.7
08 21.08 Ю 2 20 км слаб. дождь н/о +22.2 +20.3 89 +28 +28 душно 1010.6 1007.6

 

Местоположение метеостанции Отару (Япония): широта 43.18 долгота 141.01 высота над уровнем моря 26 м.

В архиве по умолчанию представлена погода в Отару за последнюю неделю. Архивные данные за месяц целиком и за предыдущие месяцы, начиная с января 2011 года, Вы можете получить, выбрав интересующий диапазон дат из раскрывающегося списка и нажав кнопку "Ввод!".


*Определитесь, кто Вы:
робот инопланетянин человек

Внимание! Время в таблицах - всемирное. Для получения местного времени необходимо прибавить поправку, которая равна 9 ч.

Смотрите также архив погоды в соседних городах и на ближайших метеорологических станциях:

Погода в Саппоро (Япония) (29 км)
Погода в Куттяне (Япония) (38 км)
Погода в Ивамидзаве (Япония) (63 км)
Погода в Томакомае (Япония) (76 км)
Погода в Суццу (Япония) (78 км)
Погода в Муроране (Япония) (96 км)
Погода в Румои (Япония) (99 км)
Погода в Асахикаве (Япония) (127 км)
Погода в Хаборо (Япония) (143 км)
Погода в Хакодате (Япония) (153 км)

Пояснения к столбцам:

Ветер - указаны скорость ветра в м/с - средняя за 10 мин, порывы в срок и между сроками (в фигурных скобках) и направление, откуда дует ветер: С - северный, СВ - северо-восточный, В - восточный, ЮВ - юго-восточный, Ю - южный, ЮЗ - юго-западный, З - западный, СЗ - северо-западный.
Видимость - горизонтальная дальность видимости в метрах или километрах. При видимости от 1 до 10 км при отсутствии осадков обычно наблюдается дымка, при ухудшении видимости до 1 км и менее - туман. В сухую погоду видимость может ухудшаться дымом, пылью или мглою.
Явления - указаны атмосферные явления, наблюдавшиеся в срок или в последний час перед сроком; фигурными скобками обозначены явления, наблюдавшиеся между сроками (за 1-3 часа до срока); квадратными скобками обозначены град или гололедные отложения с указанием их диаметра в мм.
Облачность - указаны через наклонную черту общая и нижняя облачность в баллах и высота нижней границы облаков в метрах; квадратными скобками обозначены формы облаков: Ci - перистые, Cs - перисто-слоистые, Cc - перисто-кучевые, Ac - высококучевые, As - высокослоистые, Sc - слоисто-кучевые, Ns - слоисто-дождевые, Cu - кучевые, Cb - кучево-дождевые. Подробнее классификацию облаков см. в Атласе облаков (PDF).
T - Температура воздуха - температура, измеренная на высоте 2 м над землей.
Td - Температура точки росы - температура, при понижении до которой содержащийся в воздухе водяной пар достигнет насыщения.
f - Относительная влажность воздуха - влажноcть воздуха, измеренная на высоте 2 м над землей.
Te - Эффективная температура - температура, которую ощущает одетый по сезону человек в тени. Характеристика душности погоды. При расчете учитывается влияние влажности воздуха и скорости ветра на теплоощущения человека.
Tes - Эффективная температура на солнце - температура, которую ощущает человек, с поправкой на солнечный нагрев. Характеристика знойности погоды. Зависит от высоты солнца над горизонтом, облачности и скорости ветра. Ночью, в пасмурную погоду, а также при ветре 12 м/с и более поправка равна нулю.
P - Атмосферное давление - приведенное к уровню моря атмосферное давление.
Po - Атмосферное давление - измеренное на уровне метеостанции атмосферное давление.
Tmin - Минимальная температура - минимум температуры воздуха на высоте 2 м над землей.
Tmax - Максимальная температура - максимум температуры воздуха на высоте 2 м над землей.
R - Количество осадков - Количество выпавших осадков за период времени, мм. При наведении курсора мыши на число - период времени, за который выпало указанное количество осадков.
R24 - Количество осадков - Количество выпавших осадков за 24 часа, мм.
S - Снежный покров - Высота снежного покрова, см. При наведении курсора мыши на число - состояние снежного покрова и степень покрытия местности в баллах.